Tracking 22130 objects as of 21-Jan-2021
HD Live streaming from Space Station
objects crossing your sky now

BEIDOU G7

Track BEIDOU G7 now!
BEIDOU G7 is classified as:


NORAD ID: 41586
Int'l Code: 2016-037A
Perigee: 35,757.8 km
Apogee: 35,830.9 km
Inclination: 1.9 °
Period: 1,436.1 minutes
Semi major axis: 42165 km
RCS: Unknown
Launch date: June 12, 2016
Source: People's Republic of China (PRC)
Launch site: Xichang Space Center, China (XSC)
aabbcc
Your satellite tracking list
Your tracking list is empty




NASA's NSSDC Master Catalog

Two Line Element Set (TLE):
1 41586U 16037A   21021.29174424 -.00000346  00000-0  00000+0 0  9993
2 41586   1.9453  69.4121 0008661 357.9014 269.0943  1.00269658 17009
Source of the keplerian elements: AFSPC